[[{"header":{"parameterUnit":"m.s-1","parameterCategory":1,"la1":30.2991,"la2":30.254,"lo1":-89.0895,"lo2":-89.0444,"dy":0.0017,"dx":0.0017,"nx":28,"ny":28,"refTime":"2023-10-16T03:00:00:Z","depth":0,"parameterNumber":2,"parameterNumberName":"U-component_of_WINDS"},"data":[0,0,0,0,0,0,0,0,0,0,0,0,0,0,0,0,0,0,0,0,0,0,0,0,0,0,0,0,0,0,0,0,0,0,0,0,0,0,0,0,0,0,0,0,0,0,0,0,0,0,0,0,0,0,0,0,0,0,-1.4553,-1.4553,0,-1.4585,-1.4585,-1.4586,-1.4557,-1.4556,-1.4555,-1.4553,-1.4586,-1.4588,-1.459,0,0,0,0,0,0,0,0,0,0,0,0,0,-1.4466,-1.4468,-1.4553,-1.4553,-1.4554,-1.4585,-1.4585,-1.4586,-1.4557,-1.4556,-1.4554,-1.4553,-1.4585,-1.4588,-1.459,0,0,0,0,0,0,0,0,0,0,0,0,0,-1.4501,-1.4468,-1.4553,-1.4543,-1.4543,-1.4585,-1.4585,-1.4586,-1.4557,-1.4556,-1.4554,-1.4552,-1.4584,-1.4587,-1.459,-1.4644,0,0,-1.4599,-1.46,0,0,0,0,0,0,0,0,-1.4499,-1.4505,-1.4544,-1.4544,-1.4543,-1.4565,-1.4567,-1.4605,-1.4558,-1.4552,-1.4553,-1.4551,-1.458,-1.4584,-1.4593,-1.4645,-1.4646,-1.4599,-1.4601,-1.4602,-1.4603,0,0,0,0,0,0,0,-1.4497,-1.4503,-1.4565,-1.4545,-1.4544,-1.4537,-1.454,-1.4574,-1.4576,-1.4552,-1.455,-1.4554,-1.458,-1.4591,-1.4594,-1.4647,-1.4599,-1.4602,-1.4604,-1.4605,-1.4745,-1.4747,0,0,0,0,0,0,-1.4496,-1.4501,-1.4564,-1.4566,-1.4517,-1.454,-1.4543,-1.456,-1.4575,-1.4576,-1.4556,-1.4553,-1.4587,-1.4591,-1.4595,-1.466,-1.4602,-1.4605,-1.4607,-1.4743,-1.4745,-1.4747,0,0,0,0,0,0,-1.4494,-1.4502,-1.4563,-1.4533,-1.4541,-1.4543,-1.4562,-1.4561,-1.4572,-1.4578,-1.4578,-1.4567,-1.4585,-1.4591,-1.4632,-1.466,-1.4607,-1.4609,-1.4741,-1.4744,-1.4746,-1.4788,0,0,0,0,0,0,-1.4492,-1.4501,-1.4522,-1.4534,-1.4542,-1.46,-1.4564,-1.4563,-1.4578,-1.4574,-1.4588,-1.4589,-1.4584,-1.4628,-1.4635,-1.4663,-1.4611,-1.4738,-1.4742,-1.4745,-1.4785,-1.4792,-1.4799,0,0,0,0,0,-1.4489,-1.4532,-1.4523,-1.453,-1.4568,-1.4602,-1.4606,-1.4601,-1.458,-1.4601,-1.4604,-1.4588,-1.4656,-1.4632,-1.464,-1.467,-1.4736,-1.4741,-1.4745,-1.4781,-1.4791,-1.4799,0,0,0,0,0,0,-1.4522,-1.4533,-1.4523,-1.4572,-1.4586,-1.4597,-1.4623,-1.4611,-1.4631,-1.4627,-1.4618,-1.4622,-1.4666,-1.4671,-1.4645,-1.4723,-1.4693,-1.4699,-1.4717,-1.4727,-1.4734,-1.4732,-1.4614,0,0,0,0,0,-1.4535,-1.4562,-1.457,-1.4612,-1.4619,-1.462,-1.4634,-1.4629,-1.4643,-1.4649,-1.4655,-1.467,-1.4694,-1.471,-1.4733,-1.4785,-1.4788,-1.4809,-1.4816,-1.4822,-1.4828,-1.4857,-1.4867,-1.4762,-1.4762,-1.4762,0,0,-1.4562,-1.4572,-1.4589,-1.4619,-1.4629,-1.4657,-1.4625,-1.4656,-1.4676,-1.4653,-1.4693,-1.4698,-1.4714,-1.4761,-1.4782,-1.4767,-1.4858,-1.4828,-1.4833,-1.4835,-1.4863,-1.4873,-1.4881,-1.4765,-1.4764,-1.4764,0,0,-1.4626,-1.4636,-1.4672,-1.4684,-1.47,-1.47,-1.4709,-1.4721,-1.4724,-1.4764,-1.4748,-1.4772,-1.4814,-1.4826,-1.4837,-1.4907,-1.4893,-1.4914,-1.4953,-1.4981,-1.4989,-1.4997,-1.5023,-1.5032,-1.492,-1.492,-1.492,0,-1.4658,-1.47,-1.4693,-1.4725,-1.4739,-1.4719,-1.4757,-1.4768,-1.4791,-1.4801,-1.4784,-1.4837,-1.4845,-1.4896,-1.4913,-1.4922,-1.4933,-1.4913,-1.4989,-1.4996,-1.5003,-1.5027,-1.5037,-1.4922,-1.4922,-1.4922,-1.4921,0,-1.4739,-1.4768,-1.4795,-1.4819,-1.4836,-1.487,-1.4868,-1.4886,-1.4879,-1.4881,-1.4922,-1.4932,-1.4957,-1.4968,-1.4961,-1.5017,-1.5008,-1.499,-1.496,-1.5015,-1.5038,-1.5048,-1.4926,-1.4925,-1.4924,-1.4924,0,0,-1.4826,-1.4845,-1.4855,-1.4866,-1.4883,-1.4905,-1.4939,-1.4963,-1.498,-1.4996,-1.5024,-1.506,-1.5044,-1.5057,-1.5051,-1.5076,-1.5132,-1.5055,-1.5055,-1.507,-1.5196,-1.521,-1.5221,-1.5122,-1.5124,-1.5125,-1.5195,0,-1.4892,-1.4951,-1.4946,-1.5002,-1.5029,-1.5011,-1.5041,-1.5054,-1.5057,-1.508,-1.5082,-1.5109,-1.5085,-1.5093,-1.5116,-1.512,-1.5157,-1.5115,-1.515,-1.5151,-1.5148,-1.5233,-1.5249,-1.5314,-1.5204,-1.5205,-1.5206,0,-1.4977,-1.4997,-1.5056,-1.507,-1.5081,-1.5108,-1.513,-1.5153,-1.5168,-1.5168,-1.5183,-1.5173,-1.5207,-1.5175,-1.5222,-1.5194,-1.5207,-1.5212,-1.5214,-1.5218,-1.5183,-1.5241,-1.5334,-1.5345,-1.522,-1.5219,-1.5218,0,-1.5036,-1.5078,-1.5119,-1.5128,-1.5145,-1.5164,-1.5172,-1.5185,-1.52,-1.522,-1.523,-1.5253,-1.5266,-1.5284,-1.5281,-1.5258,-1.5329,-1.5297,-1.5331,-1.5331,-1.5348,-1.5347,-1.5446,-1.5354,-1.5354,-1.5354,-1.5354,0,-1.5111,-1.5149,-1.5146,-1.5172,-1.5213,-1.5206,-1.5247,-1.5252,-1.5264,-1.529,-1.5275,-1.53,-1.5294,-1.5318,-1.5315,-1.5356,-1.5361,-1.5363,-1.5362,-1.5365,-1.5365,-1.5375,-1.5371,-1.5357,-1.5356,-1.5356,-1.5355,0,-1.5185,-1.5185,-1.5229,-1.5241,-1.5244,-1.5275,-1.5285,-1.5309,-1.531,-1.5343,-1.5351,-1.5353,-1.5381,-1.5379,-1.5411,-1.5409,-1.5459,-1.5452,-1.5454,-1.5453,-1.5488,-1.5485,-1.5598,-1.5613,-1.551,-1.5511,-1.5512,0,-1.5234,-1.5262,-1.5277,-1.5294,-1.5303,-1.533,-1.5346,-1.534,-1.5358,-1.5377,-1.5399,-1.5426,-1.5447,-1.5493,-1.5498,-1.5522,-1.5516,-1.5554,-1.552,-1.5522,-1.5518,-1.5517,-1.5521,-1.5561,-1.5562,-1.5563,-1.5564,0,-1.5321,-1.5319,-1.5343,-1.5367,-1.5387,-1.5406,-1.5422,-1.5437,-1.5433,-1.5453,-1.5482,-1.5499,-1.5531,-1.5558,-1.5582,-1.5589,-1.5577,-1.5575,-1.5584,-1.5588,-1.5589,-1.559,-1.5474,-1.5572,-1.5571,-1.5571,-1.557,-1.557,-1.5385,-1.541,-1.5425,-1.5452,-1.5464,-1.548,-1.5504,-1.5508,-1.5532,-1.5559,-1.5554,-1.5587,-1.5601,-1.5631,-1.5641,-1.5666,-1.5653,-1.5666,-1.567,-1.5674,-1.5678,-1.5584,-1.567,-1.567,-1.567,-1.567,-1.5669,0,-1.5472,-1.5481,-1.5506,-1.5531,-1.5552,-1.5538,-1.5556,-1.5575,-1.5604,-1.5619,-1.5641,-1.5674,-1.5701,-1.5707,-1.5732,-1.5752,-1.5747,-1.5759,-1.5758,-1.576,-1.5688,-1.5678,-1.5763,-1.5763,-1.5763,-1.5763,-1.5763,-1.5763,-1.552,-1.5562,-1.5563,-1.561,-1.5619,-1.5651,-1.5663,-1.5678,-1.569,-1.5728,-1.5751,-1.5755,-1.5766,-1.5792,-1.5816,-1.5817,-1.5828,-1.5842,-1.5841,-1.5774,-1.5765,-1.5756,-1.5747,-1.5844,-1.5845,-1.5911,-1.5912,-1.5913]},{"header":{"parameterUnit":"m.s-1","parameterCategory":1,"la1":30.2991,"la2":30.254,"lo1":-89.0895,"lo2":-89.0444,"dy":0.0017,"dx":0.0017,"nx":28,"ny":28,"refTime":"2023-10-16T03:00:00:Z","depth":0,"parameterNumber":3,"parameterNumberName":"V-component_of_WINDS"},"data":[0,0,0,0,0,0,0,0,0,0,0,0,0,0,0,0,0,0,0,0,0,0,0,0,0,0,0,0,0,0,0,0,0,0,0,0,0,0,0,0,0,0,0,0,0,0,0,0,0,0,0,0,0,0,0,0,0,0,-2.4783,-2.4783,0,-2.4811,-2.4811,-2.4812,-2.4776,-2.4775,-2.4773,-2.4772,-2.48,-2.4802,-2.4804,0,0,0,0,0,0,0,0,0,0,0,0,0,-2.4696,-2.4698,-2.4783,-2.4783,-2.4783,-2.4811,-2.4811,-2.4812,-2.4776,-2.4775,-2.4773,-2.4772,-2.4799,-2.4801,-2.4804,0,0,0,0,0,0,0,0,0,0,0,0,0,-2.473,-2.4698,-2.4782,-2.4769,-2.4768,-2.4811,-2.4811,-2.4812,-2.4777,-2.4775,-2.4773,-2.4771,-2.4798,-2.4801,-2.4804,-2.4861,0,0,-2.4813,-2.4814,0,0,0,0,0,0,0,0,-2.4728,-2.4733,-2.4771,-2.477,-2.4769,-2.4788,-2.4791,-2.4828,-2.4777,-2.4773,-2.4772,-2.477,-2.4797,-2.48,-2.481,-2.4863,-2.4864,-2.4813,-2.4815,-2.4816,-2.4817,0,0,0,0,0,0,0,-2.4726,-2.4732,-2.4794,-2.4771,-2.477,-2.4761,-2.4764,-2.4798,-2.4796,-2.4773,-2.4771,-2.4775,-2.4797,-2.4807,-2.481,-2.4864,-2.4813,-2.4816,-2.4818,-2.4819,-2.4966,-2.4968,0,0,0,0,0,0,-2.4725,-2.473,-2.4793,-2.4795,-2.4743,-2.4764,-2.4767,-2.4784,-2.4795,-2.4795,-2.4777,-2.4773,-2.4803,-2.4807,-2.4811,-2.4879,-2.4816,-2.4819,-2.4821,-2.4964,-2.4966,-2.4969,0,0,0,0,0,0,-2.4723,-2.4731,-2.4792,-2.4762,-2.4769,-2.4768,-2.4787,-2.4785,-2.4796,-2.4798,-2.4797,-2.4788,-2.4802,-2.4807,-2.4849,-2.488,-2.482,-2.4823,-2.4961,-2.4964,-2.4967,-2.5016,0,0,0,0,0,0,-2.4721,-2.4731,-2.4753,-2.4762,-2.477,-2.483,-2.4789,-2.4787,-2.4801,-2.4797,-2.4808,-2.4808,-2.4801,-2.4845,-2.4852,-2.4883,-2.4825,-2.4958,-2.4963,-2.4966,-2.5012,-2.5021,-2.5028,0,0,0,0,0,-2.4718,-2.4765,-2.4754,-2.4762,-2.4798,-2.4832,-2.4836,-2.4827,-2.4804,-2.4826,-2.4827,-2.4808,-2.4875,-2.485,-2.4857,-2.4889,-2.4956,-2.4961,-2.4966,-2.5008,-2.5019,-2.5028,0,0,0,0,0,0,-2.4758,-2.4766,-2.4754,-2.4805,-2.4818,-2.4826,-2.4853,-2.4839,-2.4858,-2.4853,-2.4841,-2.4843,-2.4889,-2.4893,-2.4865,-2.4945,-2.4912,-2.4918,-2.4941,-2.4951,-2.496,-2.4958,-2.4828,0,0,0,0,0,-2.4773,-2.48,-2.4805,-2.485,-2.4857,-2.4854,-2.4869,-2.4861,-2.4873,-2.4878,-2.4883,-2.4895,-2.4919,-2.4935,-2.4958,-2.5012,-2.5014,-2.5038,-2.5046,-2.5053,-2.5059,-2.5088,-2.5099,-2.4984,-2.4984,-2.4984,0,0,-2.4804,-2.4811,-2.4829,-2.4858,-2.4867,-2.4896,-2.4859,-2.489,-2.4911,-2.4883,-2.4924,-2.4927,-2.494,-2.4989,-2.5011,-2.4994,-2.5091,-2.5059,-2.5064,-2.5066,-2.5094,-2.5105,-2.5115,-2.4988,-2.4987,-2.4987,0,0,-2.4874,-2.4883,-2.4921,-2.4932,-2.4946,-2.4944,-2.4953,-2.4963,-2.4965,-2.5005,-2.4985,-2.5009,-2.5051,-2.5061,-2.5072,-2.5148,-2.5131,-2.5155,-2.5198,-2.5227,-2.5236,-2.5244,-2.5272,-2.5282,-2.5161,-2.5161,-2.5161,0,-2.4911,-2.4953,-2.4943,-2.4976,-2.499,-2.4966,-2.5005,-2.5015,-2.5036,-2.5046,-2.5026,-2.5079,-2.5086,-2.5137,-2.5156,-2.5165,-2.5175,-2.5154,-2.5236,-2.5244,-2.5251,-2.5277,-2.5287,-2.5164,-2.5164,-2.5163,-2.5163,0,-2.4997,-2.5027,-2.5056,-2.5078,-2.5095,-2.5131,-2.5126,-2.5144,-2.5134,-2.5134,-2.5176,-2.5184,-2.5207,-2.5219,-2.5209,-2.5269,-2.5258,-2.5238,-2.5204,-2.5265,-2.5289,-2.5299,-2.5168,-2.5167,-2.5166,-2.5165,0,0,-2.5094,-2.511,-2.5121,-2.5131,-2.5146,-2.5168,-2.5203,-2.5227,-2.5243,-2.5258,-2.5287,-2.5323,-2.5304,-2.5317,-2.5308,-2.5334,-2.5394,-2.531,-2.531,-2.5326,-2.5461,-2.5477,-2.5489,-2.5382,-2.5384,-2.5386,-2.546,0,-2.5166,-2.5227,-2.5219,-2.5277,-2.5305,-2.5283,-2.5313,-2.5325,-2.5326,-2.5349,-2.5349,-2.5376,-2.5348,-2.5356,-2.538,-2.5381,-2.5421,-2.5376,-2.5409,-2.5411,-2.5408,-2.5501,-2.5518,-2.5588,-2.5469,-2.5471,-2.5472,0,-2.5257,-2.5277,-2.5339,-2.535,-2.5361,-2.5388,-2.541,-2.5432,-2.5446,-2.5444,-2.5459,-2.5446,-2.548,-2.5445,-2.5493,-2.5463,-2.5476,-2.5479,-2.5481,-2.5484,-2.5446,-2.5508,-2.5609,-2.562,-2.5487,-2.5486,-2.5485,0,-2.5323,-2.5365,-2.5407,-2.5416,-2.543,-2.545,-2.5456,-2.5467,-2.5482,-2.5501,-2.5511,-2.5533,-2.5545,-2.5562,-2.5556,-2.5531,-2.5605,-2.5569,-2.5605,-2.5605,-2.5622,-2.5621,-2.5728,-2.5629,-2.5629,-2.5629,-2.5629,0,-2.5404,-2.5443,-2.5437,-2.5463,-2.5506,-2.5496,-2.5538,-2.5542,-2.5552,-2.5579,-2.556,-2.5585,-2.5574,-2.5599,-2.5593,-2.5634,-2.5639,-2.5639,-2.5638,-2.5642,-2.5642,-2.5651,-2.5646,-2.5632,-2.5631,-2.563,-2.563,0,-2.5485,-2.5482,-2.5527,-2.5537,-2.554,-2.5571,-2.5579,-2.5603,-2.5603,-2.5636,-2.5644,-2.5642,-2.567,-2.5665,-2.5695,-2.5692,-2.5743,-2.5735,-2.5739,-2.5737,-2.5773,-2.577,-2.589,-2.5906,-2.5796,-2.5797,-2.5798,0,-2.5537,-2.5567,-2.558,-2.5596,-2.5605,-2.5632,-2.5647,-2.5638,-2.5655,-2.5673,-2.5695,-2.5721,-2.5742,-2.5787,-2.5789,-2.5812,-2.5804,-2.5845,-2.5808,-2.5811,-2.5806,-2.5805,-2.5808,-2.5852,-2.5854,-2.5855,-2.5855,0,-2.5631,-2.5628,-2.5652,-2.5675,-2.5695,-2.5712,-2.5728,-2.5743,-2.5735,-2.5755,-2.5784,-2.58,-2.5831,-2.5857,-2.5879,-2.5885,-2.5869,-2.5867,-2.5877,-2.5881,-2.5883,-2.5883,-2.576,-2.5865,-2.5864,-2.5863,-2.5862,-2.5862,-2.5699,-2.5725,-2.5738,-2.5765,-2.5776,-2.5792,-2.5816,-2.5818,-2.5842,-2.5868,-2.5861,-2.5893,-2.5906,-2.5933,-2.5942,-2.5967,-2.5952,-2.5965,-2.5969,-2.5973,-2.5978,-2.5878,-2.5971,-2.597,-2.597,-2.597,-2.597,0,-2.5793,-2.58,-2.5825,-2.5849,-2.587,-2.5854,-2.5871,-2.5889,-2.5919,-2.5932,-2.5953,-2.5986,-2.6011,-2.6015,-2.6039,-2.6058,-2.6052,-2.6065,-2.6064,-2.6066,-2.5989,-2.5979,-2.607,-2.607,-2.607,-2.607,-2.607,-2.607,-2.5844,-2.5886,-2.5886,-2.5933,-2.594,-2.5973,-2.5984,-2.5998,-2.6009,-2.6047,-2.6068,-2.6071,-2.608,-2.6105,-2.6128,-2.6128,-2.6138,-2.6154,-2.6152,-2.6081,-2.6071,-2.6061,-2.6052,-2.6156,-2.6156,-2.6226,-2.6227,-2.6227]}]]